Orbital Elements at Epoch 2459200.5 (2020-Dec-17.0) TDB
Reference: JPL 21 (heliocentric ecliptic J2000)
Element | Value | Uncertainty (1-sigma) | Units |
e | .02578715644427733 | 6.9316e-08 | |
a | 2.663118141959187 | 1.7394e-08 | au |
q | 2.594443897802892 | 1.9155e-07 | au |
i | 14.2338428448501 | 7.1465e-06 | deg |
node | 350.719530417766 | 1.4733e-05 | deg |
peri | 211.9345985740956 | 9.2054e-05 | deg |
M | 14.91419574484333 | 9.165e-05 | deg |
tp | 2459134.737030611933 (2020-Oct-12.23703061) | 0.00040402 | TDB |
period | 1587.391595546803 4.35 | 1.5552e-05 4.258e-08 | d yr |
n | .22678713999112 | 2.2219e-09 | deg/d |
Q | 2.731792386115482 | 1.7843e-08 | au |
|
| | Orbit Determination Parameters
Additional Information
|